APSTAR-6E

Last updated on Tue Jul 01 2025 00:02:49 GMT+0000 (Coordinated Universal Time)

1 55239U 23005A 25181.60606352 -.00000318 00000+0 00000+0 0 9990 2 55239 0.0467 235.7168 0002776 312.9803 82.3863 1.00271688 15169
UTC large
Height (km)
Speed (km/s)
/
Latitude / Longitude
Inclination (degrees)
Orbital Period (minutes)
Azimuth
Elevation
Range (km)
Doppler Factor

Next 0 passes for location: London (51.5072 / 0.1276)

Sorry there are no passes over London.